Location: Paddlesworth
(51.1000°N, 1.1333°E)
Time: 09:09:10
(UTC+00:00)

Cosmos 1821 Rocket - Pass Details

Date: 11 May 2021
Orbit: 945 x 1004 km, 82.9° (Epoch: 15 June)

Event Time Altitude Azimuth Distance (km) Brightness Sun altitude
Rises 23:29:40 0° 350° (N) 3,744 8.6 -20.6°
Reaches altitude 10° 23:32:12 10° 351° (N) 2,791 7.6 -20.6°
Maximum altitude 23:38:40 87° 81° (E) 1,013 4.0 -20.7°
Enters shadow 23:41:26 37° 168° (SSE) 1,508 4.5 -20.7°
